Weather in Dimitrovgrad

Bulgaria     42°03′01″N   25°36′27″E
temp.,
°C
wind,
m/s
gust,
m/s
humid.,
%
clouds,
%
prec.,
mm/h
press.,
hPa
HPBL,
m
13 april, tue
tue1300:00+9sse228825 0.0 102022
03:00+7ese11925 0.0 102016
06:00+6ese2294100 0.0 101917
09:00+9e2383100 0.0 1019218
12:00+14e3371100 0.0 1018722
15:00+17ese3564100 0.0 10151119
18:00+13s71179100 0.1 1013458
21:00+11s4785100 0.4 1013235
14 april, wed
wed1400:00+11ssw359791 3.0 1013198
03:00+9ssw229095 3.1 101315
06:00+8sw119448 0.8 101210
09:00+11nw239189 1.9 1013305
12:00+14wnw4573100 0.2 1012910
15:00+11wnw7117882 2.1 1013509
18:00+10nnw3681100 1.0 1014455
21:00+6se11945 1.1 101624
15 april, thu
thu1500:00+5wnw511765 0.0 1017302
03:00+4wnw5137287 0.0 1018368
06:00+4wnw4107292 0.0 1018338
09:00+6wnw6969100 0.0 1019485
12:00+10wnw4654100 0.0 10181076
15:00+12wnw235098 0.0 10171509
18:00+12s225795 0.0 1016824
21:00+8nne377553 0.1 1018182
16 april, fri
fri1600:00+6wnw1275100 0.0 101925
03:00+4wnw22725 0.0 101919
06:00+2wnw411733 0.0 1019232
09:00+6nw5106395 0.0 1020495
12:00+11nw57506 0.0 10191187
15:00+13wnw34455 0.0 10181653
18:00+13ssw335576 0.0 1017867
21:00+8ssw3678100 0.0 101872
17 april, sat
sat1700:00+5ene118398 0.0 101910
03:00+5n2278100 0.0 101912
06:00+4nnw1174100 0.0 101917
09:00+7e1169100 0.0 1020262
12:00+10ene2270100 0.0 1018498
15:00+13ese4562100 0.1 10171495
18:00+8sse5888100 1.3 1017569
21:00+7se3689100 1.7 1018385